| time (UTC) | temp F | wind direction | speed MPH | gust MPH | rain 1hr in | rain 24hr in | rain mn in | humidity % | barometer mb |
| 20260831234416 | 60 | 299 | 4.0 | 4.0 | 0.00 | 0.00 | 0.00 | 66 | 1016.5 |
| 20260831233410 | 61 | 293 | 0.0 | 0.0 | 0.00 | 0.00 | 0.00 | 68 | 1016.6 |
| 20260831232401 | 61 | 297 | 2.0 | 3.0 | 0.00 | 0.00 | 0.00 | 67 | 1016.6 |
| 20260831231340 | 61 | 297 | 3.0 | 3.0 | 0.00 | 0.00 | 0.00 | 67 | 1016.9 |
| 20260831230329 | 62 | 309 | 1.0 | 1.0 | 0.00 | 0.00 | 0.00 | 66 | 1016.6 |
| 20260831225320 | 62 | 296 | 2.0 | 3.0 | 0.00 | 0.00 | 0.00 | 65 | 1016.7 |
| 20260831224257 | 62 | 299 | 3.0 | 3.0 | 0.00 | 0.00 | 0.00 | 67 | 1016.5 |
| 20260831223241 | 63 | 303 | 1.0 | 2.0 | 0.00 | 0.00 | 0.00 | 65 | 1016.4 |
| 20260831222225 | 63 | 307 | 3.0 | 3.0 | 0.00 | 0.00 | 0.00 | 65 | 1016.7 |
| 20260831221201 | 63 | 297 | 2.0 | 3.0 | 0.00 | 0.00 | 0.00 | 68 | 1016.7 |
| 20260831220153 | 63 | 297 | 3.0 | 3.0 | 0.00 | 0.00 | 0.00 | 65 | 1016.4 |
| 20260831215140 | 63 | 297 | 3.0 | 3.0 | 0.00 | 0.00 | 0.00 | 66 | 1016.3 |
| 20260831214122 | 63 | 303 | 3.0 | 3.0 | 0.00 | 0.00 | 0.00 | 68 | 1016.1 |
| 20260831213057 | 63 | 289 | 2.0 | 2.0 | 0.00 | 0.00 | 0.00 | 68 | 1016.0 |
| 20260831212033 | 64 | 304 | 3.0 | 3.0 | 0.00 | 0.00 | 0.00 | 66 | 1016.2 |
| 20260831211009 | 65 | 297 | 3.0 | 3.0 | 0.00 | 0.00 | 0.00 | 64 | 1016.1 |
| 20260831210000 | 68 | 277 | 2.0 | 2.0 | 0.00 | 0.00 | 0.00 | 58 | 1016.1 |
| 20260831204941 | 67 | 293 | 3.0 | 4.0 | 0.00 | 0.00 | 0.00 | 60 | 1015.6 |
| 20260831203930 | 67 | 301 | 2.0 | 3.0 | 0.00 | 0.00 | 0.00 | 61 | 1015.8 |
| 20260831202905 | 67 | 295 | 2.0 | 2.0 | 0.00 | 0.00 | 0.00 | 64 | 1015.3 |
| 20260831201842 | 68 | 314 | 2.0 | 2.0 | 0.00 | 0.00 | 0.00 | 59 | 1015.5 |
| 20260831200833 | 68 | 2 | 2.0 | 3.0 | 0.00 | 0.00 | 0.00 | 61 | 1015.5 |
| 20260831195811 | 66 | 310 | 2.0 | 3.0 | 0.00 | 0.00 | 0.00 | 63 | 1015.4 |
| 20260831194800 | 67 | 306 | 2.0 | 3.0 | 0.00 | 0.00 | 0.00 | 62 | 1015.5 |
| 20260831193753 | 68 | 303 | 3.0 | 3.0 | 0.00 | 0.00 | 0.00 | 63 | 1015.3 |
| 20260831192739 | 68 | 290 | 0.0 | 0.0 | 0.00 | 0.00 | 0.00 | 59 | 1015.4 |
| 20260831191722 | 67 | 282 | 0.0 | 0.0 | 0.00 | 0.00 | 0.00 | 65 | 1015.4 |
| 20260831190713 | 69 | 289 | 1.0 | 2.0 | 0.00 | 0.00 | 0.00 | 63 | 1014.6 |
| 20260831185649 | 72 | 324 | 1.0 | 2.0 | 0.00 | 0.00 | 0.00 | 56 | 1014.8 |
| 20260831184641 | 72 | 22 | 2.0 | 3.0 | 0.00 | 0.00 | 0.00 | 53 | 1014.8 |
| 20260831183618 | 72 | 317 | 2.0 | 3.0 | 0.00 | 0.00 | 0.00 | 55 | 1014.4 |
| 20260831182554 | 71 | 310 | 3.0 | 3.0 | 0.00 | 0.00 | 0.00 | 57 | 1014.5 |
| 20260831181539 | 70 | 300 | 2.0 | 3.0 | 0.00 | 0.00 | 0.00 | 62 | 1014.4 |
| 20260831180522 | 69 | 302 | 2.0 | 3.0 | 0.00 | 0.00 | 0.00 | 57 | 1014.3 |
| 20260831175458 | 70 | 308 | 3.0 | 4.0 | 0.00 | 0.00 | 0.00 | 58 | 1014.2 |
| 20260831174440 | 71 | 301 | 2.0 | 3.0 | 0.00 | 0.00 | 0.00 | 55 | 1014.2 |
| 20260831173425 | 72 | 301 | 3.0 | 4.0 | 0.00 | 0.00 | 0.00 | 59 | 1014.0 |
| 20260831172402 | 72 | 304 | 2.0 | 3.0 | 0.00 | 0.00 | 0.00 | 59 | 1013.8 |
| 20260831171341 | 73 | 302 | 0.0 | 1.0 | 0.00 | 0.00 | 0.00 | 59 | 1013.9 |
| 20260831170330 | 74 | 291 | 1.0 | 2.0 | 0.00 | 0.00 | 0.00 | 59 | 1013.8 |
| 20260831165305 | 75 | 306 | 2.0 | 3.0 | 0.00 | 0.00 | 0.00 | 59 | 1014.0 |
| 20260831164241 | 77 | 339 | 2.0 | 3.0 | 0.00 | 0.00 | 0.00 | 49 | 1013.9 |
| 20260831163217 | 76 | 308 | 1.0 | 2.0 | 0.00 | 0.00 | 0.00 | 60 | 1014.0 |
| 20260831162153 | 77 | 327 | 1.0 | 2.0 | 0.00 | 0.00 | 0.00 | 53 | 1013.9 |
| 20260831161140 | 79 | 313 | 1.0 | 2.0 | 0.00 | 0.00 | 0.00 | 49 | 1013.8 |
| 20260831160122 | 78 | 310 | 3.0 | 4.0 | 0.00 | 0.00 | 0.00 | 54 | 1013.9 |
| 20260831155058 | 77 | 308 | 2.0 | 2.0 | 0.00 | 0.00 | 0.00 | 55 | 1013.9 |
| 20260831154041 | 76 | 295 | 2.0 | 2.0 | 0.00 | 0.00 | 0.00 | 60 | 1013.8 |
| 20260831153026 | 76 | 311 | 2.0 | 3.0 | 0.00 | 0.00 | 0.00 | 60 | 1013.9 |
| 20260831152002 | 79 | 300 | 1.0 | 2.0 | 0.00 | 0.00 | 0.00 | 54 | 1014.0 |
| 20260831150938 | 78 | 303 | 2.0 | 2.0 | 0.00 | 0.00 | 0.00 | 56 | 1013.9 |
| 20260831145914 | 83 | 313 | 4.0 | 5.0 | 0.00 | 0.00 | 0.00 | 48 | 1014.2 |
| 20260831144849 | 82 | 335 | 1.0 | 2.0 | 0.00 | 0.00 | 0.00 | 48 | 1013.8 |
| 20260831143839 | 85 | 329 | 0.0 | 1.0 | 0.00 | 0.00 | 0.00 | 38 | 1014.0 |
| 20260831142817 | 85 | 329 | 1.0 | 2.0 | 0.00 | 0.00 | 0.00 | 38 | 1014.1 |
| 20260831141754 | 84 | 356 | 2.0 | 3.0 | 0.00 | 0.00 | 0.00 | 37 | 1014.2 |
| 20260831140740 | 85 | 358 | 4.0 | 4.0 | 0.00 | 0.00 | 0.00 | 35 | 1014.3 |
| 20260831135722 | 85 | 10 | 2.0 | 3.0 | 0.00 | 0.00 | 0.00 | 35 | 1014.1 |
| 20260831134657 | 85 | 16 | 2.0 | 3.0 | 0.00 | 0.00 | 0.00 | 41 | 1014.2 |
| 20260831133639 | 85 | 344 | 2.0 | 3.0 | 0.00 | 0.00 | 0.00 | 36 | 1013.9 |
| 20260831132625 | 85 | 57 | 3.0 | 3.0 | 0.00 | 0.00 | 0.00 | 33 | 1014.2 |
| 20260831131602 | 85 | 354 | 4.0 | 5.0 | 0.00 | 0.00 | 0.00 | 32 | 1014.2 |
| 20260831130538 | 85 | 307 | 4.0 | 5.0 | 0.00 | 0.00 | 0.00 | 37 | 1014.2 |
| 20260831125514 | 86 | 127 | 4.0 | 5.0 | 0.00 | 0.00 | 0.00 | 36 | 1014.6 |
| 20260831124450 | 84 | 52 | 4.0 | 5.0 | 0.00 | 0.00 | 0.00 | 35 | 1014.4 |
| 20260831123439 | 84 | 319 | 1.0 | 2.0 | 0.00 | 0.00 | 0.00 | 36 | 1014.5 |
| 20260831122417 | 84 | 17 | 7.0 | 10.0 | 0.00 | 0.00 | 0.00 | 36 | 1014.6 |
| 20260831121354 | 84 | 43 | 5.0 | 6.0 | 0.00 | 0.00 | 0.00 | 37 | 1014.6 |
| 20260831120339 | 84 | 19 | 7.0 | 9.0 | 0.00 | 0.00 | 0.00 | 36 | 1014.7 |
| 20260831115323 | 84 | 356 | 1.0 | 2.0 | 0.00 | 0.00 | 0.00 | 40 | 1014.8 |
| 20260831114258 | 83 | 18 | 1.0 | 2.0 | 0.00 | 0.00 | 0.00 | 42 | 1014.5 |
| 20260831113240 | 84 | 339 | 1.0 | 2.0 | 0.00 | 0.00 | 0.00 | 41 | 1014.8 |
| 20260831112226 | 83 | 9 | 3.0 | 4.0 | 0.00 | 0.00 | 0.00 | 42 | 1014.8 |
| 20260831111202 | 83 | 317 | 2.0 | 2.0 | 0.00 | 0.00 | 0.00 | 42 | 1014.8 |
| 20260831110140 | 83 | 32 | 4.0 | 6.0 | 0.00 | 0.00 | 0.00 | 43 | 1014.8 |
| 20260831105129 | 82 | 5 | 2.0 | 3.0 | 0.00 | 0.00 | 0.00 | 46 | 1014.8 |
| 20260831104105 | 82 | 26 | 6.0 | 8.0 | 0.00 | 0.00 | 0.00 | 42 | 1014.8 |
| 20260831103041 | 82 | 295 | 2.0 | 3.0 | 0.00 | 0.00 | 0.00 | 47 | 1014.8 |
| 20260831102019 | 82 | 277 | 0.0 | 1.0 | 0.00 | 0.00 | 0.00 | 54 | 1015.0 |
| 20260831100953 | 80 | 277 | 0.0 | 0.0 | 0.00 | 0.00 | 0.00 | 55 | 1015.3 |
| 20260831095939 | 80 | 341 | 1.0 | 2.0 | 0.00 | 0.00 | 0.00 | 57 | 1015.2 |
| 20260831094922 | 79 | 277 | 0.0 | 1.0 | 0.00 | 0.00 | 0.00 | 61 | 1015.3 |
| 20260831093914 | 79 | 278 | 0.0 | 0.0 | 0.00 | 0.00 | 0.00 | 58 | 1015.5 |
| 20260831092849 | 78 | 278 | 0.0 | 1.0 | 0.00 | 0.00 | 0.00 | 59 | 1015.8 |
| 20260831091840 | 77 | 275 | 0.0 | 0.0 | 0.00 | 0.00 | 0.00 | 63 | 1015.7 |
| 20260831090818 | 78 | 262 | 0.0 | 1.0 | 0.00 | 0.00 | 0.00 | 59 | 1016.0 |
| 20260831085754 | 77 | 291 | 0.0 | 0.0 | 0.00 | 0.00 | 0.00 | 63 | 1016.1 |
| 20260831084745 | 76 | 267 | 1.0 | 3.0 | 0.00 | 0.00 | 0.00 | 65 | 1015.8 |
| 20260831083737 | 76 | 272 | 1.0 | 2.0 | 0.00 | 0.00 | 0.00 | 66 | 1015.9 |
| 20260831082729 | 75 | 232 | 3.0 | 5.0 | 0.00 | 0.00 | 0.00 | 66 | 1015.6 |
| 20260831081706 | 74 | 270 | 1.0 | 2.0 | 0.00 | 0.00 | 0.00 | 65 | 1015.4 |
| 20260831080642 | 74 | 284 | 3.0 | 4.0 | 0.00 | 0.00 | 0.00 | 63 | 1015.4 |
| 20260831075618 | 74 | 264 | 1.0 | 3.0 | 0.00 | 0.00 | 0.00 | 63 | 1015.5 |
| 20260831074610 | 73 | 248 | 3.0 | 4.0 | 0.00 | 0.00 | 0.00 | 64 | 1015.3 |
| 20260831073601 | 70 | 286 | 2.0 | 2.0 | 0.00 | 0.00 | 0.00 | 74 | 1015.4 |
| 20260831072540 | 71 | 264 | 0.0 | 1.0 | 0.00 | 0.00 | 0.00 | 70 | 1015.4 |
| 20260831071530 | 71 | 263 | 0.0 | 0.0 | 0.00 | 0.00 | 0.00 | 74 | 1015.4 |
| 20260831070506 | 69 | 264 | 0.0 | 0.0 | 0.00 | 0.00 | 0.00 | 79 | 1015.3 |
| 20260831065457 | 70 | 263 | 0.0 | 0.0 | 0.00 | 0.00 | 0.00 | 76 | 1015.3 |
| 20260831064434 | 66 | 264 | 0.0 | 0.0 | 0.00 | 0.00 | 0.00 | 79 | 1015.3 |
| 20260831063425 | 65 | 271 | 2.0 | 3.0 | 0.00 | 0.00 | 0.00 | 79 | 1015.5 |
| 20260831062402 | 63 | 292 | 0.0 | 0.0 | 0.00 | 0.00 | 0.00 | 81 | 1015.2 |
| 20260831061340 | 63 | 279 | 0.0 | 0.0 | 0.00 | 0.00 | 0.00 | 82 | 1015.3 |
| 20260831060330 | 62 | 293 | 0.0 | 1.0 | 0.00 | 0.00 | 0.00 | 82 | 1015.5 |
| 20260831055306 | 61 | 291 | 1.0 | 2.0 | 0.00 | 0.00 | 0.00 | 83 | 1015.2 |
| 20260831054258 | 58 | 292 | 1.0 | 2.0 | 0.00 | 0.00 | 0.00 | 86 | 1015.3 |
| 20260831053250 | 58 | 293 | 0.0 | 0.0 | 0.00 | 0.00 | 0.00 | 85 | 1015.2 |
| 20260831052240 | 58 | 297 | 3.0 | 3.0 | 0.00 | 0.00 | 0.00 | 85 | 1015.3 |
| 20260831051219 | 59 | 304 | 1.0 | 1.0 | 0.00 | 0.00 | 0.00 | 84 | 1015.1 |
| 20260831050210 | 58 | 295 | 0.0 | 0.0 | 0.00 | 0.00 | 0.00 | 83 | 1015.3 |
| 20260831045202 | 59 | 294 | 2.0 | 2.0 | 0.00 | 0.00 | 0.00 | 84 | 1015.1 |
| 20260831044140 | 58 | 302 | 1.0 | 1.0 | 0.00 | 0.00 | 0.00 | 83 | 1015.2 |
| 20260831043130 | 58 | 296 | 1.0 | 1.0 | 0.00 | 0.00 | 0.00 | 84 | 1015.2 |
| 20260831042121 | 57 | 304 | 1.0 | 2.0 | 0.00 | 0.00 | 0.00 | 87 | 1015.2 |
| 20260831041059 | 58 | 291 | 0.0 | 1.0 | 0.00 | 0.00 | 0.00 | 85 | 1015.2 |
| 20260831040034 | 58 | 295 | 0.0 | 0.0 | 0.00 | 0.00 | 0.00 | 85 | 1015.0 |
| 20260831035026 | 58 | 294 | 1.0 | 2.0 | 0.00 | 0.00 | 0.00 | 85 | 1015.1 |
| 20260831034002 | 58 | 295 | 1.0 | 2.0 | 0.00 | 0.00 | 0.00 | 85 | 1015.3 |
| 20260831032938 | 58 | 293 | 2.0 | 2.0 | 0.00 | 0.00 | 0.00 | 86 | 1015.0 |
| 20260831031914 | 58 | 292 | 1.0 | 1.0 | 0.00 | 0.00 | 0.00 | 86 | 1015.1 |
| 20260831030851 | 59 | 293 | 1.0 | 1.0 | 0.00 | 0.00 | 0.00 | 86 | 1015.2 |
| 20260831025840 | 59 | 294 | 1.0 | 1.0 | 0.00 | 0.00 | 0.00 | 86 | 1015.4 |
| 20260831024818 | 59 | 294 | 1.0 | 1.0 | 0.00 | 0.00 | 0.00 | 86 | 1015.3 |
| 20260831023754 | 59 | 293 | 0.0 | 0.0 | 0.00 | 0.00 | 0.00 | 88 | 1015.4 |
| 20260831022740 | 59 | 295 | 2.0 | 2.0 | 0.00 | 0.00 | 0.00 | 87 | 1015.6 |
| 20260831021722 | 59 | 293 | 2.0 | 2.0 | 0.00 | 0.00 | 0.00 | 89 | 1015.4 |
| 20260831020714 | 59 | 295 | 1.0 | 2.0 | 0.00 | 0.00 | 0.00 | 90 | 1015.4 |
| 20260831015650 | 59 | 293 | 1.0 | 1.0 | 0.00 | 0.00 | 0.00 | 91 | 1015.3 |
| 20260831014640 | 59 | 293 | 0.0 | 0.0 | 0.00 | 0.00 | 0.00 | 91 | 1015.5 |
| 20260831013619 | 59 | 293 | 0.0 | 0.0 | 0.00 | 0.00 | 0.00 | 90 | 1015.7 |
| 20260831012554 | 59 | 295 | 0.0 | 0.0 | 0.00 | 0.00 | 0.00 | 90 | 1015.6 |
| 20260831011540 | 60 | 293 | 0.0 | 0.0 | 0.00 | 0.00 | 0.00 | 91 | 1015.5 |
| 20260831010522 | 60 | 295 | 0.0 | 0.0 | 0.00 | 0.00 | 0.00 | 91 | 1015.3 |
| 20260831005458 | 60 | 293 | 0.0 | 0.0 | 0.00 | 0.00 | 0.00 | 93 | 1015.5 |
| 20260831004450 | 60 | 293 | 0.0 | 0.0 | 0.00 | 0.00 | 0.00 | 92 | 1015.5 |
| 20260831003441 | 60 | 292 | 0.0 | 0.0 | 0.00 | 0.00 | 0.00 | 93 | 1015.7 |
| 20260831002419 | 61 | 295 | 0.0 | 0.0 | 0.00 | 0.00 | 0.00 | 94 | 1016.0 |
| 20260831001355 | 60 | 293 | 0.0 | 0.0 | 0.00 | 0.00 | 0.00 | 95 | 1015.9 |
| 20260831000341 | 60 | 308 | 0.0 | 0.0 | 0.00 | 0.00 | 0.00 | 96 | 1015.8 |